Arctic Village, AK

3:58 AM AKDT on June 23, 2017 (GMT -0800)
Arctic Village

Weather History for PARC - August, 2013

Change the Weather History Date:

Saturday, August 31, 2013

  Actual Average Record
Temperature  
Mean Temperature 34 °F -  
Max Temperature 41 °F 53 °F 65 °F (1991)
Min Temperature 28 °F 31 °F 23 °F (1971)
Degree Days  
Heating Degree Days 30    
Moisture  
Dew Point 11 °F    
Average Humidity 40    
Maximum Humidity 59    
Minimum Humidity 24    
Precipitation  
Precipitation 0.00 in - - ()
Sea Level Pressure  
Sea Level Pressure 29.86 in    
Wind  
Wind Speed 9 mph (West)    
Max Wind Speed 18 mph    
Max Gust Speed 23 mph    
Visibility 10 miles    
Events      
Averages and records for this station are not official NWS values.
T = Trace of Precipitation, MM = Missing Value Source: NWS Daily Summary

Daily Weather History Graph

Daily Weather History Graph

Search for Another Location

Airport or City:

Trip Planner

Search our weather history database for the weather conditions in past years. The results will help you decide how hot, cold, wet, or windy it might be!

Date:

Astronomy

Aug. 31, 2013 Rise Set
Actual Time 6:05 AM AKDT 9:16 PM AKDT
Civil Twilight 4:59 AM AKDT 10:22 PM AKDT
Nautical Twilight 3:05 AM AKDT 12:10 AM AKDT
Astronomical Twilight Sun does not set Sun does not set
Moon No Moon Rise 7:44 PM AKDT (8/31)
Length of Visible Light 17h 22m
Length of Day
15h 10m
Waning Crescent, 20% of the Moon is Illuminated
Aug 31
Waning Crescent
Sep 5
New
Sep 12
First Quarter
Sep 19
Full
Sep 26
Last Quarter

Hourly Weather History & Observations

Time (AKDT) Temp. Windchill Dew Point Humidity Pressure Visibility Wind Dir Wind Speed Gust Speed Precip Events Conditions
12:16 AM 33.8 °F 27.0 °F 15.8 °F 48% 29.78 in 10.0 mi NNW 8.1 mph - N/A   Overcast
12:36 AM 33.8 °F 29.6 °F 12.2 °F 41% 29.79 in 10.0 mi SW 4.6 mph - N/A   Overcast
12:56 AM 33.8 °F 29.6 °F 15.8 °F 48% 29.79 in 10.0 mi West 4.6 mph - N/A   Overcast
1:16 AM 32.0 °F 27.5 °F 14.0 °F 48% 29.80 in 10.0 mi West 4.6 mph - N/A   Overcast
1:36 AM 30.2 °F 26.7 °F 15.8 °F 55% 29.81 in 10.0 mi West 3.5 mph - N/A   Partly Cloudy
1:56 AM 30.2 °F - 14.0 °F 51% 29.81 in 10.0 mi Calm Calm - N/A   Clear
2:16 AM 30.2 °F - 12.2 °F 47% 29.81 in 10.0 mi Calm Calm - N/A   Clear
2:36 AM 32.0 °F 21.6 °F 8.6 °F 38% 29.81 in 10.0 mi NW 15.0 mph 20.7 mph N/A   Clear
2:56 AM 32.0 °F 23.6 °F 10.4 °F 41% 29.82 in 10.0 mi WNW 10.4 mph - N/A   Clear
3:16 AM 28.4 °F 23.3 °F 14.0 °F 55% 29.82 in 10.0 mi SW 4.6 mph - N/A   Clear
3:36 AM 28.4 °F 20.4 °F 12.2 °F 51% 29.82 in 10.0 mi WSW 8.1 mph - N/A   Clear
3:56 AM 28.4 °F - 14.0 °F 55% 29.82 in 10.0 mi Calm Calm - N/A   Clear
4:16 AM 30.2 °F 20.8 °F 12.2 °F 47% 29.82 in 10.0 mi WSW 11.5 mph - N/A   Clear
4:36 AM 30.2 °F 20.2 °F 12.2 °F 47% 29.82 in 10.0 mi WSW 12.7 mph - N/A   Clear
4:56 AM 30.2 °F 20.8 °F 14.0 °F 51% 29.83 in 10.0 mi SW 11.5 mph - N/A   Clear
5:16 AM 28.4 °F 18.5 °F 14.0 °F 55% 29.83 in 10.0 mi SW 11.5 mph - N/A   Clear
5:36 AM 28.4 °F 18.5 °F 14.0 °F 55% 29.84 in 10.0 mi SW 11.5 mph - N/A   Clear
5:56 AM 30.2 °F 20.8 °F 14.0 °F 51% 29.84 in 10.0 mi West 11.5 mph - N/A   Clear
6:16 AM 28.4 °F 19.7 °F 15.8 °F 59% 29.85 in 10.0 mi West 9.2 mph - N/A   Clear
6:36 AM 28.4 °F 20.4 °F 14.0 °F 55% 29.85 in 10.0 mi West 8.1 mph - N/A   Clear
6:56 AM 28.4 °F 19.7 °F 14.0 °F 55% 29.86 in 10.0 mi West 9.2 mph - N/A   Clear
7:16 AM 30.2 °F 25.4 °F 12.2 °F 47% 29.86 in 10.0 mi SW 4.6 mph - N/A   Clear
7:36 AM 28.4 °F 20.4 °F 15.8 °F 59% 29.86 in 10.0 mi West 8.1 mph - N/A   Clear
7:56 AM 30.2 °F 21.3 °F 12.2 °F 47% 29.87 in 10.0 mi West 10.4 mph - N/A   Clear
8:16 AM 30.2 °F 19.8 °F 14.0 °F 51% 29.87 in 10.0 mi West 13.8 mph 18.4 mph N/A   Clear
8:36 AM 32.0 °F 23.6 °F 12.2 °F 44% 29.87 in 10.0 mi West 10.4 mph - N/A   Clear
8:56 AM 33.8 °F 24.8 °F 12.2 °F 41% 29.88 in 10.0 mi West 12.7 mph - N/A   Clear
9:16 AM 33.8 °F 23.9 °F 10.4 °F 38% 29.88 in 10.0 mi West 15.0 mph - N/A   Clear
9:36 AM 33.8 °F 23.9 °F 10.4 °F 38% 29.87 in 10.0 mi West 15.0 mph - N/A   Clear
9:56 AM 33.8 °F 23.9 °F 10.4 °F 38% 29.88 in 10.0 mi WSW 15.0 mph - N/A   Clear
10:16 AM 35.6 °F 28.0 °F 10.4 °F 35% 29.88 in 10.0 mi West 10.4 mph 16.1 mph N/A   Clear
10:36 AM 35.6 °F 28.6 °F 8.6 °F 33% 29.88 in 10.0 mi West 9.2 mph - N/A   Clear
10:56 AM 35.6 °F 29.9 °F 8.6 °F 33% 29.88 in 10.0 mi West 6.9 mph - N/A   Clear
11:16 AM 35.6 °F 26.2 °F 6.8 °F 30% 29.87 in 10.0 mi West 15.0 mph - N/A   Clear
11:36 AM 35.6 °F 28.0 °F 8.6 °F 33% 29.87 in 10.0 mi West 10.4 mph - N/A   Clear
11:56 AM 37.4 °F 30.8 °F 8.6 °F 30% 29.88 in 10.0 mi WSW 9.2 mph 16.1 mph N/A   Clear
12:16 PM 37.4 °F 29.3 °F 8.6 °F 30% 29.87 in 9.0 mi West 12.7 mph - N/A   Clear
12:36 PM 37.4 °F 28.5 °F 8.6 °F 30% 29.87 in 10.0 mi West 15.0 mph - N/A   Clear
12:56 PM 37.4 °F 28.5 °F 6.8 °F 28% 29.87 in 10.0 mi West 15.0 mph - N/A   Clear
1:16 PM 37.4 °F 30.8 °F 6.8 °F 28% 29.88 in 10.0 mi West 9.2 mph 16.1 mph N/A   Clear
1:36 PM 39.2 °F 31.6 °F 6.8 °F 26% 29.87 in 10.0 mi West 12.7 mph 18.4 mph N/A   Clear
1:56 PM 39.2 °F 35.0 °F 6.8 °F 26% 29.87 in 10.0 mi NW 5.8 mph - N/A   Clear
2:16 PM 39.2 °F 34.2 °F 6.8 °F 26% 29.88 in 10.0 mi WSW 6.9 mph - N/A   Scattered Clouds
2:36 PM 39.2 °F 31.6 °F 8.6 °F 28% 29.88 in 10.0 mi West 12.7 mph - N/A   Mostly Cloudy
2:56 PM 39.2 °F 30.8 °F 8.6 °F 28% 29.88 in 10.0 mi West 15.0 mph 18.4 mph N/A   Mostly Cloudy
3:16 PM 39.2 °F 33.0 °F 8.6 °F 28% 29.88 in 10.0 mi West 9.2 mph 16.1 mph N/A   Scattered Clouds
3:36 PM 39.2 °F 33.0 °F 8.6 °F 28% 29.88 in 10.0 mi WSW 9.2 mph - N/A   Partly Cloudy
3:56 PM 39.2 °F 29.8 °F 8.6 °F 28% 29.87 in 10.0 mi West 18.4 mph - N/A   Mostly Cloudy
4:16 PM 39.2 °F 30.2 °F 6.8 °F 26% 29.87 in 10.0 mi WNW 17.3 mph 20.7 mph N/A   Overcast
4:36 PM 39.2 °F 30.5 °F 6.8 °F 26% 29.87 in 10.0 mi West 16.1 mph 23.0 mph N/A   Overcast
4:56 PM 39.2 °F 30.8 °F 6.8 °F 26% 29.87 in 10.0 mi WNW 15.0 mph 23.0 mph N/A   Mostly Cloudy
5:16 PM 41.0 °F 34.3 °F 8.6 °F 26% 29.87 in 8.0 mi WNW 11.5 mph 16.1 mph N/A   Partly Cloudy
5:36 PM 41.0 °F 33.1 °F 8.6 °F 26% 29.87 in 10.0 mi NW 15.0 mph 21.9 mph N/A   Clear
5:56 PM 41.0 °F 32.8 °F 6.8 °F 24% 29.86 in 10.0 mi NW 16.1 mph 23.0 mph N/A   Clear
6:16 PM 39.2 °F 32.0 °F 8.6 °F 28% 29.87 in 10.0 mi NNW 11.5 mph 18.4 mph N/A   Clear
6:36 PM 39.2 °F 31.6 °F 8.6 °F 28% 29.87 in 10.0 mi NNW 12.7 mph - N/A   Clear
6:56 PM 39.2 °F 32.0 °F 8.6 °F 28% 29.87 in 10.0 mi NNW 11.5 mph - N/A   Clear
7:16 PM 39.2 °F 32.5 °F 10.4 °F 31% 29.87 in 10.0 mi NW 10.4 mph - N/A   Clear
7:36 PM 37.4 °F 30.8 °F 8.6 °F 30% 29.88 in 10.0 mi NNW 9.2 mph - N/A   Clear
7:56 PM 37.4 °F 32.1 °F 10.4 °F 33% 29.88 in 10.0 mi NW 6.9 mph - N/A   Clear
8:16 PM 35.6 °F 29.9 °F 12.2 °F 38% 29.88 in 10.0 mi NNW 6.9 mph - N/A   Clear
8:36 PM 35.6 °F 28.0 °F 10.4 °F 35% 29.88 in 10.0 mi NW 10.4 mph - N/A   Clear
8:56 PM 33.8 °F 27.7 °F 12.2 °F 41% 29.89 in 10.0 mi North 6.9 mph - N/A   Clear
9:16 PM 33.8 °F 27.0 °F 14.0 °F 44% 29.89 in 10.0 mi NNE 8.1 mph - N/A   Clear
9:36 PM 32.0 °F 28.7 °F 12.2 °F 44% 29.89 in 10.0 mi West 3.5 mph - N/A   Clear
9:56 PM 32.0 °F - 12.2 °F 44% 29.89 in 10.0 mi Calm Calm - N/A   Clear
10:16 PM 30.2 °F 26.7 °F 14.0 °F 51% 29.90 in 10.0 mi NW 3.5 mph - N/A   Clear
10:36 PM 30.2 °F 25.4 °F 12.2 °F 47% 29.90 in 10.0 mi NNE 4.6 mph - N/A   Clear
10:56 PM 28.4 °F 22.2 °F 14.0 °F 55% 29.90 in 10.0 mi NNE 5.8 mph - N/A   Clear
11:16 PM 28.4 °F 19.7 °F 15.8 °F 59% 29.90 in 10.0 mi NNE 9.2 mph - N/A   Clear
11:36 PM 28.4 °F 20.4 °F 15.8 °F 59% 29.90 in 10.0 mi NNE 8.1 mph - N/A   Clear
11:56 PM 28.4 °F 23.3 °F 15.8 °F 59% 29.91 in 10.0 mi NW 4.6 mph - N/A   Clear